QPF
0.00 0.00 0.00 0.00 0.00 0.00 0.00 0.00 0.00 0.00 0.00 0.00 0.00 0.00 0.00 0.00 0.00 0.00 0.00 0.00 0.00 0.00 0.00 0.00 0.00 0.00 0.00 0.00 0.00 0.00 0.00 0.00 0.00 0.00 0.00 0.00 0.00 0.00 0.00 0.00 0.00 0.00
0.00 0.00 0.00 0.00 0.00 0.00 0.00 0.00 0.00 0.00 0.00 0.00 0.00 0.00 0.00 0.00 0.00 0.00 0.00 0.00 0.00 0.00 0.00 0.00 0.00 0.00 0.00 0.00 0.00 0.00 0.00 0.00 0.00 0.00 0.00 0.00 0.00 0.00 0.00 0.00 0.00 0.00
0.00 0.00 0.00 0.00 0.00 0.00 0.00 0.00 0.00 0.00 0.00 0.00 0.00 0.00 0.00 0.00 0.00 0.00 0.00 0.00 0.00 0.00 0.00 0.00 0.00 0.00 0.00 0.00 0.00 0.00 0.00 0.00 0.00 0.00 0.00 0.00 0.00 0.00 0.00 0.00 0.00 0.00
0.00 0.00 0.00 0.00 0.00 0.00 0.00 0.00 0.00 0.00 0.00 0.00 0.00 0.00 0.00 0.00 0.00 0.00 0.00 0.00 0.00 0.00 0.00 0.00 0.00 0.00 0.00 0.00 0.00 0.00 0.00 0.00 0.00 0.00 0.00 0.00 0.00 0.00 0.00 0.00 0.00 0.00
0.00 0.00 0.00 0.00 0.00 0.00 0.00 0.00 0.00 0.00 0.00 0.00 0.00 0.00 0.00 0.00 0.00 0.00 0.00 0.00 0.00 0.00 0.00 0.00 0.00 0.00 0.00 0.00 0.00 0.00 0.00 0.00 0.00 0.00 0.00 0.00 0.00 0.00 0.00 0.00 0.00 0.00
0.00 0.00 0.00 0.00 0.00 0.00 0.00 0.00 0.00 0.00 0.00 0.00 0.00 0.00 0.00 0.00 0.00 0.00 0.00 0.00 0.00 0.00 0.00 0.00 0.00 0.00 0.00 0.00 0.00 0.00 0.00 0.00 0.00 0.00 0.00 0.00 0.00 0.00 0.00 0.00 0.00 0.00
0.00 0.00 0.00 0.00 0.00 0.00 0.00 0.00 0.00 0.00 0.00 0.00 0.00 0.00 0.00 0.00 0.00 0.00 0.00 0.00 0.00 0.00 0.00 0.00 0.00 0.00 0.00 0.00 0.00 0.00 0.00 0.00 0.00 0.00 0.00 0.00 0.00 0.00 0.00 0.00 0.00 0.00
0.00 0.00 0.00 0.00 0.00 0.00 0.00 0.00 0.00 0.00 0.00 0.00 0.00 0.00 0.00 0.00 0.00 0.00 0.00 0.00 0.00 0.00 0.00 0.00 0.00 0.00 0.00 0.00 0.00 0.00 0.00 0.00 0.00 0.00 0.00 0.00 0.00 0.00 0.00 0.00 0.00 0.00
0.00 0.00 0.00 0.00 0.00 0.00 0.00 0.00 0.00 0.00 0.00 0.00 0.00 0.00 0.00 0.00 0.00 0.00 0.00 0.00 0.00 0.00 0.00 0.00 0.00 0.00 0.00 0.00 0.00 0.00 0.00 0.00 0.00 0.00 0.00 0.00 0.00 0.00 0.00 0.00 0.00 0.00
0.00 0.00 0.00 0.00 0.00 0.00 0.00 0.00 0.00 0.00 0.00 0.00 0.00 0.00 0.00 0.00 0.00 0.00 0.00 0.00 0.00 0.00 0.00 0.00 0.00 0.00 0.00 0.00 0.00 0.00 0.00 0.00 0.00 0.00 0.00 0.00 0.00 0.00 0.00 0.00 0.00 0.00
0.00 0.00 0.00 0.00 0.00 0.00 0.00 0.00 0.00 0.00 0.00 0.00 0.00 0.00 0.00 0.00 0.00 0.00 0.00 0.00 0.00 0.00 0.00 0.00 0.00 0.00 0.00 0.00 0.00 0.00 0.00 0.00 0.00 0.00 0.00 0.00 0.00 0.00 0.00 0.00 0.00 0.00
0.00 0.00 0.00 0.00 0.00 0.00 0.00 0.00 0.00 0.00 0.00 0.00 0.00 0.00 0.00 0.00 0.00 0.00 0.00 0.00 0.00 0.00 0.00 0.00 0.00 0.00 0.00 0.00 0.00 0.00 0.00 0.00 0.00 0.00 0.00 0.00 0.00 0.00 0.00 0.00 0.00 0.00
0.00 0.00 0.00 0.00 0.00 0.00 0.00 0.00 0.00 0.00 0.00 0.00 0.00 0.00 0.00 0.00 0.00 0.00 0.00 0.00 0.00 0.00 0.00 0.00 0.00 0.00 0.00 0.00 0.00 0.00 0.00 0.00 0.00 0.00 0.00 0.00 0.00 0.00 0.00 0.00 0.00 0.00
0.00 0.00 0.00 0.00 0.00 0.00 0.00 0.00 0.00 0.00 0.00 0.00 0.00 0.00 0.00 0.00 0.00 0.00 0.00 0.00 0.00 0.00 0.00 0.00 0.00 0.00 0.00 0.00 0.00 0.00 0.00 0.00 0.00 0.00 0.00 0.00 0.00 0.00 0.00 0.00 0.00 0.00
0.00 0.00 0.00 0.00 0.00 0.00 0.00 0.00 0.00 0.00 0.00 0.00 0.00 0.00 0.00 0.00 0.00 0.00 0.00 0.00 0.00 0.00 0.00 0.00 0.00 0.00 0.00 0.00 0.00 0.00 0.00 0.00 0.00 0.00 0.00 0.00 0.00 0.00 0.00 0.00 0.00 0.00
0.00 0.00 0.00 0.00 0.00 0.00 0.00 0.00 0.00 0.00 0.00 0.00 0.00 0.00 0.00 0.00 0.00 0.00 0.00 0.00 0.00 0.00 0.00 0.00 0.00 0.00 0.00 0.00 0.00 0.00 0.00 0.00 0.00 0.00 0.00 0.00 0.00 0.00 0.00 0.00 0.00 0.00
0.00 0.00 0.00 0.00 0.00 0.00 0.00 0.00 0.00 0.00 0.00 0.00 0.00 0.00 0.00 0.00 0.00 0.00 0.00 0.00 0.00 0.00 0.00 0.00 0.00 0.00 0.00 0.00 0.00 0.00 0.00 0.00 0.00 0.00 0.00 0.00 0.00 0.00 0.00 0.00 0.00 0.00
0.00 0.00 0.00 0.00 0.00 0.00 0.00 0.00 0.00 0.00 0.00 0.00 0.00 0.00 0.00 0.00 0.00 0.00 0.00 0.00 0.00 0.00 0.00 0.00 0.00 0.00 0.00 0.00 0.00 0.00 0.00 0.00 0.00 0.00 0.00 0.00 0.00 0.00 0.00 0.00 0.00 0.00
0.00 0.00 0.00 0.00 0.00 0.00 0.00 0.00 0.00 0.00 0.00 0.00 0.00 0.00 0.00 0.00 0.00 0.00 0.00 0.00 0.00 0.00 0.00 0.00 0.00 0.00 0.00 0.00 0.00 0.00 0.00 0.00 0.00 0.00 0.00 0.00 0.00 0.00 0.00 0.00 0.00 0.00
0.00 0.00 0.00 0.00 0.00 0.00 0.00 0.00 0.00 0.00 0.00 0.00 0.00 0.00 0.00 0.00 0.00 0.00 0.00 0.00 0.00 0.00 0.00 0.00 0.00 0.00 0.00 0.00 0.00 0.00 0.00 0.00 0.00 0.00 0.00 0.00 0.00 0.00 0.00 0.00 0.00 0.00
0.00 0.00 0.00 0.00 0.00 0.00 0.00 0.00 0.00 0.00 0.00 0.00 0.00 0.00 0.00 0.00 0.00 0.00 0.00 0.00 0.00 0.00 0.00 0.00 0.00 0.00 0.00 0.00 0.00 0.00 0.00 0.00 0.00 0.00 0.00 0.00 0.00 0.00 0.00 0.00 0.00 0.00
0.00 0.00 0.00 0.00 0.00 0.00 0.00 0.00 0.00 0.00 0.00 0.00 0.00 0.00 0.00 0.00 0.00 0.00 0.00 0.00 0.00 0.00 0.00 0.00 0.00 0.00 0.00 0.00 0.00 0.00 0.00 0.00 0.00 0.00 0.00 0.00 0.00 0.00 0.00 0.00 0.00 0.00
0.00 0.00 0.00 0.00 0.00 0.00 0.00 0.00 0.00 0.00 0.00 0.00 0.00 0.00 0.00 0.00 0.00 0.00 0.00 0.00 0.00 0.00 0.00 0.00 0.00 0.00 0.00 0.00 0.00 0.00 0.00 0.00 0.00 0.00 0.00 0.00 0.00 0.00 0.00 0.00 0.00 0.00
0.00 0.00 0.00 0.00 0.00 0.00 0.00 0.00 0.00 0.00 0.00 0.00 0.00 0.00 0.00 0.00 0.00 0.00 0.00 0.00 0.00 0.00 0.00 0.00 0.00 0.00 0.00 0.00 0.00 0.00 0.00 0.00 0.00 0.00 0.00 0.00 0.00 0.00 0.00 0.00 0.00 0.00
0.00 0.00 0.00 0.00 0.00 0.00 0.00 0.00 0.00 0.00 0.00 0.00 0.00 0.00 0.00 0.00 0.00 0.00 0.00 0.00 0.00 0.00 0.00 0.00 0.00 0.00 0.00 0.00 0.00 0.00 0.00 0.00 0.00 0.00 0.00 0.00 0.00 0.00 0.00 0.00 0.00 0.00
0.00 0.00 0.00 0.00 0.00 0.00 0.00 0.00 0.00 0.00 0.00 0.00 0.00 0.00 0.00 0.00 0.00 0.00 0.00 0.00 0.00 0.00 0.00 0.00 0.00 0.00 0.00 0.00 0.00 0.00 0.00 0.00 0.00 0.00 0.00 0.00 0.00 0.00 0.00 0.00 0.00 0.00
MSLP
1026.95 1027.21 1027.45 1027.73 1028.01 1028.21 1028.45 1028.81 1029.25 1029.59 1030.01 1030.37 1030.63 1031.01 1031.17 1031.35 1031.47 1031.61 1031.85 1032.03 1032.21 1032.31 1032.41 1032.47 1032.51 1032.55 1032.59 1032.61 1032.63 1032.69 1032.85 1032.99 1033.07 1033.13 1033.17 1033.15 1033.17 1033.19 1033.25 1033.31 1033.33 1033.31
1027.05 1027.29 1027.57 1027.81 1028.13 1028.45 1028.79 1029.05 1029.41 1029.71 1030.09 1030.49 1030.83 1031.05 1031.31 1031.43 1031.63 1031.77 1031.99 1032.21 1032.33 1032.41 1032.47 1032.55 1032.63 1032.71 1032.77 1032.81 1032.87 1032.91 1033.05 1033.11 1033.23 1033.23 1033.27 1033.19 1033.19 1033.27 1033.35 1033.37 1033.39 1033.39
1027.15 1027.39 1027.61 1027.85 1028.19 1028.59 1028.93 1029.35 1029.65 1029.99 1030.29 1030.65 1030.93 1031.17 1031.39 1031.61 1031.81 1031.99 1032.13 1032.29 1032.41 1032.47 1032.51 1032.55 1032.65 1032.75 1032.85 1032.91 1032.97 1032.99 1033.07 1033.15 1033.27 1033.29 1033.25 1033.21 1033.17 1033.31 1033.39 1033.47 1033.49 1033.47
1027.27 1027.49 1027.75 1028.09 1028.39 1028.71 1029.15 1029.53 1029.97 1030.25 1030.49 1030.79 1031.11 1031.33 1031.51 1031.77 1031.99 1032.17 1032.29 1032.35 1032.43 1032.45 1032.47 1032.53 1032.67 1032.83 1032.93 1032.97 1032.99 1033.03 1033.07 1033.19 1033.35 1033.39 1033.39 1033.31 1033.31 1033.37 1033.45 1033.53 1033.57 1033.57
1027.31 1027.65 1027.95 1028.25 1028.59 1028.91 1029.31 1029.65 1029.99 1030.33 1030.65 1030.97 1031.19 1031.39 1031.61 1031.89 1032.13 1032.29 1032.35 1032.37 1032.37 1032.43 1032.49 1032.61 1032.77 1032.91 1033.01 1033.05 1033.07 1033.13 1033.21 1033.31 1033.43 1033.51 1033.53 1033.53 1033.45 1033.45 1033.51 1033.51 1033.61 1033.63
1027.51 1027.75 1028.05 1028.31 1028.65 1028.97 1029.39 1029.71 1030.03 1030.35 1030.65 1030.91 1031.13 1031.37 1031.67 1031.93 1032.15 1032.27 1032.31 1032.37 1032.43 1032.51 1032.63 1032.77 1032.91 1032.99 1033.07 1033.11 1033.15 1033.25 1033.35 1033.49 1033.55 1033.59 1033.63 1033.61 1033.61 1033.53 1033.51 1033.55 1033.61 1033.69
1027.53 1027.81 1028.11 1028.41 1028.73 1029.13 1029.43 1029.75 1030.01 1030.25 1030.51 1030.75 1031.07 1031.41 1031.71 1031.97 1032.17 1032.27 1032.35 1032.43 1032.53 1032.63 1032.73 1032.89 1033.01 1033.09 1033.11 1033.21 1033.27 1033.37 1033.45 1033.53 1033.61 1033.63 1033.67 1033.67 1033.65 1033.65 1033.61 1033.65 1033.71 1033.79
1027.61 1027.89 1028.17 1028.49 1028.85 1029.27 1029.51 1029.75 1029.95 1030.17 1030.43 1030.79 1031.15 1031.51 1031.77 1032.01 1032.15 1032.27 1032.37 1032.47 1032.55 1032.65 1032.77 1032.91 1033.03 1033.11 1033.19 1033.31 1033.41 1033.49 1033.55 1033.55 1033.63 1033.65 1033.67 1033.71 1033.71 1033.79 1033.81 1033.77 1033.83 1033.87
1027.61 1027.93 1028.23 1028.57 1028.95 1029.31 1029.51 1029.69 1029.89 1030.17 1030.51 1030.87 1031.27 1031.55 1031.83 1031.97 1032.11 1032.25 1032.39 1032.45 1032.53 1032.67 1032.81 1032.93 1033.05 1033.15 1033.23 1033.33 1033.43 1033.49 1033.59 1033.61 1033.61 1033.67 1033.73 1033.81 1033.85 1033.87 1033.87 1033.89 1033.91 1033.93
1027.67 1027.97 1028.27 1028.63 1028.95 1029.25 1029.41 1029.61 1029.85 1030.17 1030.55 1030.95 1031.27 1031.55 1031.75 1031.93 1032.05 1032.19 1032.35 1032.45 1032.53 1032.71 1032.85 1032.97 1033.05 1033.15 1033.25 1033.31 1033.37 1033.45 1033.53 1033.61 1033.67 1033.75 1033.79 1033.81 1033.85 1033.87 1033.89 1033.91 1033.91 1033.93
1027.65 1027.91 1028.17 1028.53 1028.85 1029.13 1029.31 1029.55 1029.85 1030.21 1030.59 1030.87 1031.17 1031.45 1031.63 1031.79 1032.01 1032.19 1032.29 1032.37 1032.51 1032.67 1032.85 1032.93 1033.03 1033.13 1033.25 1033.27 1033.29 1033.35 1033.49 1033.61 1033.73 1033.77 1033.81 1033.83 1033.81 1033.81 1033.79 1033.81 1033.85 1033.83
1027.55 1027.81 1028.03 1028.29 1028.63 1028.95 1029.21 1029.51 1029.89 1030.25 1030.55 1030.85 1031.01 1031.19 1031.43 1031.67 1031.93 1032.13 1032.19 1032.27 1032.45 1032.67 1032.79 1032.93 1033.01 1033.09 1033.15 1033.19 1033.27 1033.37 1033.49 1033.59 1033.67 1033.71 1033.75 1033.77 1033.75 1033.73 1033.71 1033.71 1033.73 1033.75
1027.37 1027.55 1027.79 1028.11 1028.45 1028.81 1029.15 1029.49 1029.89 1030.23 1030.47 1030.67 1030.85 1030.95 1031.21 1031.57 1031.87 1032.01 1032.13 1032.31 1032.49 1032.65 1032.79 1032.93 1033.03 1033.03 1033.05 1033.11 1033.23 1033.37 1033.49 1033.61 1033.65 1033.65 1033.67 1033.67 1033.65 1033.63 1033.63 1033.65 1033.67 1033.67
1027.15 1027.35 1027.59 1027.91 1028.29 1028.65 1028.99 1029.41 1029.85 1030.19 1030.41 1030.55 1030.65 1030.81 1031.11 1031.43 1031.71 1031.91 1032.09 1032.35 1032.51 1032.63 1032.83 1032.93 1032.99 1032.97 1032.99 1033.09 1033.23 1033.39 1033.55 1033.63 1033.65 1033.71 1033.71 1033.69 1033.65 1033.65 1033.65 1033.65 1033.63 1033.61
1026.89 1027.11 1027.39 1027.75 1028.17 1028.59 1028.97 1029.37 1029.75 1030.03 1030.27 1030.41 1030.55 1030.75 1031.05 1031.33 1031.57 1031.81 1032.07 1032.33 1032.49 1032.69 1032.87 1032.91 1032.91 1032.93 1032.97 1033.09 1033.31 1033.51 1033.65 1033.75 1033.79 1033.77 1033.75 1033.75 1033.73 1033.71 1033.67 1033.63 1033.59 1033.53
1026.53 1026.81 1027.17 1027.63 1028.07 1028.49 1028.87 1029.29 1029.63 1029.95 1030.17 1030.31 1030.45 1030.67 1030.99 1031.29 1031.55 1031.81 1032.07 1032.25 1032.47 1032.67 1032.81 1032.85 1032.85 1032.89 1032.95 1033.09 1033.31 1033.59 1033.75 1033.81 1033.85 1033.83 1033.81 1033.79 1033.79 1033.79 1033.77 1033.71 1033.63 1033.55
1026.29 1026.63 1027.05 1027.47 1027.89 1028.41 1028.85 1029.19 1029.51 1029.81 1030.07 1030.23 1030.43 1030.71 1030.97 1031.27 1031.55 1031.79 1032.01 1032.19 1032.35 1032.53 1032.63 1032.67 1032.77 1032.85 1032.85 1032.95 1033.11 1033.23 1033.47 1033.73 1033.83 1033.89 1033.83 1033.83 1033.83 1033.83 1033.81 1033.75 1033.65 1033.57
1026.01 1026.51 1026.93 1027.37 1027.85 1028.29 1028.69 1029.01 1029.37 1029.69 1029.97 1030.17 1030.43 1030.71 1031.01 1031.29 1031.53 1031.73 1031.93 1032.11 1032.25 1032.39 1032.51 1032.57 1032.63 1032.67 1032.67 1032.77 1032.93 1033.05 1033.23 1033.53 1033.71 1033.79 1033.79 1033.77 1033.73 1033.69 1033.65 1033.61 1033.61 1033.55
1025.91 1026.33 1026.75 1027.27 1027.73 1028.17 1028.57 1028.95 1029.27 1029.59 1029.87 1030.11 1030.27 1030.57 1030.97 1031.25 1031.45 1031.67 1031.79 1031.95 1032.13 1032.31 1032.39 1032.47 1032.59 1032.55 1032.51 1032.57 1032.71 1032.87 1033.01 1033.17 1033.43 1033.55 1033.67 1033.65 1033.55 1033.51 1033.47 1033.47 1033.49 1033.45
1025.63 1026.11 1026.57 1027.07 1027.63 1028.09 1028.47 1028.77 1029.09 1029.25 1029.57 1029.91 1030.31 1030.65 1030.83 1031.13 1031.39 1031.47 1031.63 1031.79 1031.97 1032.15 1032.29 1032.39 1032.49 1032.51 1032.39 1032.39 1032.51 1032.67 1032.81 1032.97 1033.21 1033.35 1033.43 1033.45 1033.39 1033.33 1033.29 1033.31 1033.31 1033.31
1025.35 1025.85 1026.37 1026.97 1027.49 1027.93 1028.29 1028.53 1028.77 1029.19 1029.53 1029.85 1030.13 1030.29 1030.55 1030.77 1031.01 1031.21 1031.37 1031.63 1031.87 1032.01 1032.19 1032.33 1032.43 1032.41 1032.25 1032.21 1032.27 1032.45 1032.65 1032.77 1033.01 1033.17 1033.21 1033.17 1033.13 1033.09 1033.07 1033.13 1033.15 1033.13
1024.95 1025.55 1026.13 1026.73 1027.29 1027.75 1028.03 1028.23 1028.57 1028.83 1029.15 1029.65 1030.09 1030.39 1030.61 1030.81 1031.05 1031.19 1031.27 1031.41 1031.65 1031.91 1032.17 1032.31 1032.43 1032.27 1032.11 1032.01 1032.07 1032.27 1032.47 1032.73 1032.93 1033.05 1033.07 1032.99 1032.99 1032.99 1033.01 1033.01 1032.99 1032.97
1024.61 1025.15 1025.71 1026.29 1026.85 1027.31 1027.59 1027.81 1028.17 1028.67 1029.13 1029.55 1029.85 1030.11 1030.31 1030.47 1030.59 1030.81 1031.07 1031.25 1031.47 1031.83 1032.17 1032.33 1032.41 1032.23 1031.91 1031.77 1031.83 1032.03 1032.31 1032.63 1032.87 1032.95 1032.97 1032.97 1032.89 1032.81 1032.77 1032.73 1032.71 1032.71
1024.17 1024.63 1025.15 1025.75 1026.41 1026.67 1026.87 1027.27 1027.77 1028.33 1028.71 1029.09 1029.19 1029.55 1029.87 1030.07 1030.41 1030.79 1031.03 1031.11 1031.25 1031.63 1031.99 1032.21 1032.17 1032.13 1031.79 1031.61 1031.65 1031.83 1032.11 1032.55 1032.81 1032.83 1032.81 1032.71 1032.59 1032.49 1032.49 1032.49 1032.45 1032.33
1023.69 1024.19 1024.65 1025.21 1025.71 1025.99 1026.39 1026.91 1027.33 1027.65 1028.19 1028.81 1029.03 1029.25 1029.45 1029.97 1030.35 1030.61 1030.89 1031.03 1031.15 1031.47 1031.81 1031.99 1031.99 1031.99 1031.67 1031.45 1031.47 1031.63 1031.83 1032.15 1032.43 1032.55 1032.57 1032.45 1032.45 1032.37 1032.21 1032.17 1032.11 1032.01
1023.37 1023.79 1024.19 1024.63 1025.01 1025.53 1026.17 1026.49 1027.05 1027.73 1028.13 1028.49 1028.87 1029.09 1029.37 1029.77 1030.13 1030.41 1030.55 1030.77 1031.07 1031.35 1031.63 1031.67 1031.79 1031.75 1031.71 1031.31 1031.23 1031.31 1031.43 1031.85 1032.19 1032.31 1032.19 1032.03 1031.99 1031.95 1031.97 1031.85 1031.77 1031.71
Thickness
5550 5547 5543 5540 5536 5532 5528 5524 5519 5514 5510 5506 5502 5498 5494 5490 5486 5482 5478 5473 5468 5464 5460 5457 5453 5449 5445 5441 5436 5432 5427 5423 5419 5415 5411 5407 5403 5400 5396 5392 5389 5386
5544 5540 5537 5533 5529 5524 5520 5516 5512 5508 5503 5499 5495 5491 5486 5481 5476 5472 5467 5462 5458 5454 5450 5447 5443 5438 5434 5430 5425 5421 5417 5413 5408 5404 5400 5397 5393 5389 5386 5382 5379 5375
5537 5534 5530 5527 5522 5517 5513 5508 5504 5500 5495 5491 5486 5481 5476 5471 5466 5461 5457 5452 5449 5445 5441 5437 5432 5428 5423 5419 5415 5411 5406 5401 5397 5394 5390 5387 5383 5379 5375 5371 5368 5365
5531 5527 5523 5519 5515 5510 5504 5500 5494 5490 5486 5481 5476 5471 5466 5460 5456 5451 5447 5443 5439 5436 5431 5427 5422 5417 5412 5408 5405 5401 5396 5392 5387 5383 5380 5377 5374 5370 5365 5362 5358 5355
5524 5519 5515 5511 5506 5501 5496 5492 5486 5482 5477 5472 5466 5461 5456 5451 5446 5442 5437 5434 5430 5426 5422 5417 5411 5407 5402 5398 5395 5390 5386 5382 5377 5374 5370 5366 5363 5360 5356 5352 5349 5345
5515 5511 5507 5502 5498 5493 5488 5484 5479 5474 5468 5463 5458 5452 5447 5441 5436 5432 5429 5425 5421 5416 5411 5406 5402 5397 5392 5389 5384 5380 5376 5372 5367 5364 5360 5357 5353 5350 5347 5343 5339 5334
5507 5503 5499 5494 5490 5485 5480 5476 5470 5465 5460 5454 5449 5443 5437 5432 5427 5424 5419 5415 5411 5406 5401 5396 5391 5387 5383 5379 5375 5370 5366 5362 5358 5355 5351 5348 5344 5340 5337 5333 5328 5324
5500 5495 5491 5486 5482 5476 5472 5467 5462 5457 5452 5446 5440 5434 5428 5423 5419 5414 5410 5405 5400 5395 5391 5386 5382 5377 5373 5369 5365 5360 5357 5353 5350 5346 5342 5339 5334 5330 5326 5321 5317 5312
5492 5487 5482 5478 5473 5468 5462 5458 5454 5448 5443 5436 5430 5424 5419 5414 5410 5405 5400 5395 5390 5385 5381 5376 5371 5368 5363 5360 5356 5352 5348 5344 5340 5337 5333 5328 5324 5319 5314 5309 5304 5299
5483 5479 5475 5470 5464 5459 5454 5450 5445 5439 5433 5427 5422 5416 5411 5406 5400 5395 5390 5385 5380 5375 5371 5366 5362 5358 5354 5351 5348 5343 5339 5336 5331 5327 5322 5318 5313 5308 5303 5298 5293 5288
5476 5472 5467 5462 5456 5451 5447 5442 5436 5430 5424 5418 5413 5407 5402 5397 5391 5385 5381 5375 5371 5366 5361 5357 5353 5349 5345 5342 5339 5335 5331 5326 5322 5317 5312 5307 5303 5298 5293 5288 5283 5279
5469 5465 5460 5454 5449 5443 5439 5433 5426 5420 5415 5409 5404 5398 5393 5388 5382 5376 5372 5366 5361 5357 5352 5348 5344 5340 5338 5334 5330 5326 5322 5317 5312 5307 5302 5297 5293 5288 5284 5279 5274 5269
5461 5457 5452 5446 5441 5436 5429 5423 5417 5411 5406 5400 5395 5390 5385 5379 5373 5368 5363 5358 5353 5349 5344 5339 5335 5332 5329 5325 5321 5317 5312 5307 5302 5297 5293 5289 5284 5279 5275 5270 5265 5260
5454 5449 5445 5439 5433 5427 5420 5413 5408 5402 5396 5391 5387 5382 5377 5371 5365 5360 5355 5350 5345 5341 5336 5331 5327 5324 5320 5316 5312 5307 5302 5297 5293 5289 5285 5280 5275 5271 5266 5261 5257 5252
5447 5442 5437 5431 5424 5417 5409 5403 5398 5392 5387 5383 5379 5375 5369 5363 5357 5352 5346 5341 5337 5332 5327 5323 5319 5315 5311 5307 5302 5298 5293 5288 5285 5280 5276 5272 5267 5262 5258 5253 5249 5245
5440 5435 5429 5423 5415 5407 5400 5395 5389 5383 5379 5375 5371 5366 5361 5355 5349 5344 5339 5334 5328 5324 5319 5315 5311 5307 5303 5299 5294 5290 5285 5280 5276 5272 5268 5264 5259 5254 5250 5246 5242 5238
5433 5428 5422 5414 5406 5398 5392 5387 5381 5376 5371 5367 5363 5358 5352 5347 5342 5336 5331 5326 5321 5316 5311 5307 5303 5298 5294 5291 5286 5282 5278 5274 5269 5264 5261 5256 5252 5247 5243 5239 5236 5232
5427 5420 5413 5405 5397 5390 5384 5379 5373 5368 5363 5359 5354 5349 5344 5339 5334 5328 5324 5319 5313 5309 5304 5300 5295 5292 5288 5283 5279 5276 5272 5268 5262 5258 5254 5249 5245 5241 5237 5234 5231 5226
5419 5413 5405 5397 5389 5382 5377 5371 5365 5361 5356 5351 5347 5342 5337 5332 5326 5321 5316 5311 5306 5301 5297 5292 5288 5285 5282 5277 5273 5269 5265 5262 5257 5252 5248 5244 5240 5236 5232 5229 5225 5221
5412 5405 5397 5388 5381 5375 5369 5364 5358 5354 5349 5344 5339 5334 5329 5325 5320 5315 5309 5304 5299 5294 5290 5285 5281 5278 5275 5271 5267 5263 5259 5255 5251 5246 5243 5239 5235 5231 5228 5224 5220 5217
5406 5398 5389 5381 5374 5367 5362 5357 5352 5348 5342 5336 5331 5327 5323 5319 5313 5308 5303 5297 5292 5288 5282 5278 5275 5272 5269 5265 5261 5257 5253 5249 5245 5240 5237 5233 5230 5226 5222 5219 5215 5211
5399 5391 5382 5374 5368 5362 5357 5352 5346 5341 5335 5329 5324 5319 5316 5312 5306 5301 5297 5291 5286 5281 5276 5272 5268 5266 5263 5259 5256 5251 5246 5243 5238 5234 5231 5228 5224 5221 5217 5214 5210 5206
5392 5385 5377 5369 5363 5357 5352 5347 5341 5335 5329 5323 5318 5313 5309 5304 5299 5294 5290 5285 5280 5275 5270 5266 5262 5259 5258 5254 5250 5245 5241 5236 5232 5229 5226 5222 5219 5216 5213 5209 5205 5202
5386 5380 5373 5366 5359 5354 5348 5342 5335 5329 5323 5318 5313 5308 5304 5298 5293 5288 5282 5279 5275 5269 5265 5260 5256 5253 5252 5249 5244 5239 5235 5231 5227 5223 5220 5218 5215 5212 5209 5206 5202 5198
5381 5375 5369 5362 5356 5350 5344 5337 5331 5325 5318 5312 5307 5302 5297 5292 5286 5281 5276 5273 5269 5264 5259 5255 5250 5247 5245 5243 5238 5233 5229 5226 5222 5218 5216 5213 5211 5208 5206 5203 5199 5195
5376 5370 5364 5359 5352 5346 5339 5331 5325 5318 5311 5305 5300 5294 5290 5285 5280 5275 5271 5267 5263 5258 5254 5250 5245 5242 5239 5237 5233 5228 5225 5221 5217 5214 5212 5210 5208 5205 5202 5199 5196 5192